GW4332 Weather Reports


time (UTC)temp
F
wind
direction
speed
knots
gust
knots
rain 1hr
in
rain 24hr
in
rain mn
in
humidity
%
barometer
mb
20260503021029 55 39 0.0 6.1 0.00 0.00 0.13 90 1011.4
20260503020030 56 143 0.0 5.2 0.00 0.00 0.13 90 1011.4
20260503015029 55 138 1.7 8.7 0.00 0.00 0.13 90 1011.3
20260503014029 56 178 0.9 7.8 0.00 0.00 0.13 90 1011.4
20260503013029 55 18 0.0 8.7 0.00 0.00 0.13 90 1011.5
20260503012030 55 93 0.9 10.4 0.00 0.00 0.13 90 1011.5
20260503011030 55 13 0.0 7.8 0.00 0.00 0.13 89 1011.6
20260503010029 56 75 0.9 7.8 0.00 0.00 0.13 90 1011.7
20260503005030 56 99 1.7 7.0 0.00 0.00 0.13 89 1011.7
20260503004029 56 111 0.9 7.8 0.00 0.00 0.13 89 1011.8
20260503003029 56 96 3.5 11.3 0.00 0.00 0.13 89 1011.7
20260503002030 56 91 4.3 7.8 0.00 0.00 0.13 89 1011.7
20260503001029 56 89 4.3 8.7 0.00 0.00 0.13 88 1011.9
20260503000030 56 70 6.1 9.6 0.00 0.00 0.13 88 1012.0
20260502235029 56 63 6.1 11.3 0.00 0.00 0.13 88 1012.4
20260502234030 57 74 5.2 11.3 0.00 0.00 0.11 87 1013.0
20260502233030 58 59 0.9 2.6 0.00 0.00 0.09 86 1013.7
20260502232030 58 59 0.0 1.7 0.00 0.00 0.08 86 1014.0
20260502231030 57 288 0.9 6.1 0.00 0.00 0.06 85 1014.1
20260502230029 57 192 1.7 11.3 0.00 0.00 0.05 84 1014.4
20260502225030 58 214 7.0 13.0 0.00 0.00 0.03 82 1014.8
20260502224029 58 219 8.7 18.2 0.00 0.00 0.01 81 1014.9
20260502223030 59 292 7.0 9.6 0.00 0.00 0.00 80 1013.8
20260502222029 59 233 0.0 7.0 0.00 0.00 0.00 78 1013.9
20260502221030 59 99 2.6 8.7 0.00 0.00 0.00 78 1013.6
20260502220029 59 131 0.9 9.6 0.00 0.00 0.00 78 1013.6
20260502215030 59 140 1.7 9.6 0.00 0.00 0.00 79 1013.6
20260502214030 59 89 2.6 7.8 0.00 0.00 0.00 80 1013.9
20260502213029 58 92 3.5 7.8 0.00 0.00 0.00 81 1013.3
20260502212030 58 83 5.2 9.6 0.00 0.00 0.00 81 1013.3
20260502211030 59 82 3.5 6.1 0.00 0.00 0.00 81 1013.5
20260502210030 59 78 2.6 6.1 0.00 0.00 0.00 81 1013.5
20260502205029 59 68 2.6 7.0 0.00 0.00 0.00 80 1013.7
20260502204030 59 51 2.6 5.2 0.00 0.00 0.00 80 1013.8
20260502203030 59 41 3.5 6.1 0.00 0.00 0.00 80 1014.0
20260502202029 59 54 2.6 6.1 0.00 0.00 0.00 80 1014.2
20260502201030 60 37 4.3 7.8 0.00 0.00 0.00 80 1014.3
20260502200029 60 35 4.3 8.7 0.00 0.00 0.00 80 1014.4
20260502195030 60 57 3.5 7.0 0.00 0.00 0.00 81 1014.5
20260502194030 60 38 5.2 8.7 0.00 0.00 0.00 80 1014.5
20260502193030 61 42 4.3 7.8 0.00 0.00 0.00 80 1014.6
20260502192029 61 42 5.2 8.7 0.00 0.00 0.00 78 1014.5
20260502191029 62 38 4.3 7.8 0.00 0.00 0.00 76 1014.4
20260502190030 62 45 5.2 10.4 0.00 0.00 0.00 73 1014.3
20260502185030 63 33 4.3 8.7 0.00 0.00 0.00 68 1014.3
20260502184029 63 1 2.6 5.2 0.00 0.00 0.00 67 1014.4
20260502183029 63 316 4.3 7.0 0.00 0.00 0.00 68 1014.3
20260502182030 63 316 4.3 5.2 0.00 0.00 0.00 67 1014.3
20260502181029 63 315 4.3 7.8 0.00 0.00 0.00 66 1014.4
20260502164029 64 301 7.0 8.7 0.00 0.00 0.00 68 1015.3
20260502163030 64 298 7.8 9.6 0.00 0.00 0.00 68 1015.3
20260502162030 64 297 7.0 9.6 0.00 0.00 0.00 68 1015.4
20260502161029 64 300 7.0 8.7 0.00 0.00 0.00 70 1015.4
20260502152030 64 304 6.1 8.7 0.00 0.00 0.00 75 1015.7
20260502151029 64 299 7.8 9.6 0.00 0.00 0.00 76 1015.8
20260502123029 64 251 9.6 11.3 0.00 0.00 0.00 78 1016.9
20260502122030 64 252 9.6 13.0 0.00 0.00 0.00 78 1016.9
20260502121030 64 245 10.4 12.2 0.00 0.00 0.00 77 1016.9
20260502115030 64 258 10.4 12.2 0.00 0.00 0.00 74 1017.1
20260502114030 65 254 8.7 11.3 0.00 0.00 0.00 74 1017.1
20260502113029 65 257 8.7 11.3 0.00 0.00 0.00 74 1017.2
20260502112030 65 257 9.6 11.3 0.00 0.00 0.00 74 1017.3
20260502111029 64 248 8.7 10.4 0.00 0.00 0.00 74 1017.3
20260502110030 64 255 8.7 10.4 0.00 0.00 0.00 73 1017.3
20260502105029 64 250 7.8 10.4 0.00 0.00 0.00 73 1017.4
20260502104030 63 250 8.7 11.3 0.00 0.00 0.00 72 1017.5
20260502103029 63 249 8.7 10.4 0.00 0.00 0.00 71 1017.5
20260502102030 64 240 7.8 9.6 0.00 0.00 0.00 69 1017.6
20260502101029 64 234 8.7 12.2 0.00 0.00 0.00 68 1017.6
20260502091030 62 81 0.9 2.6 0.00 0.00 0.00 62 1017.3
20260502071029 59 188 1.7 5.2 0.00 0.00 0.00 55 1017.8
20260502070030 58 190 2.6 5.2 0.00 0.00 0.00 55 1017.8
20260502065030 59 174 1.7 6.1 0.00 0.00 0.00 55 1017.8
20260502064029 59 200 1.7 4.3 0.00 0.00 0.00 53 1017.8
20260502063030 59 153 1.7 7.8 0.00 0.00 0.00 52 1017.8
20260502062030 59 159 1.7 4.3 0.00 0.00 0.00 52 1017.8
20260502061029 59 129 1.7 6.1 0.00 0.00 0.00 51 1017.6
20260502060030 59 109 2.6 6.1 0.00 0.00 0.00 52 1017.4
20260502055030 57 112 1.7 5.2 0.00 0.00 0.00 54 1017.4
20260502054029 57 121 1.7 5.2 0.00 0.00 0.00 55 1017.6
20260502053030 56 112 1.7 7.0 0.00 0.00 0.00 55 1017.6
20260502052030 55 118 1.7 6.1 0.00 0.00 0.00 56 1017.6
20260502051029 55 112 1.7 6.1 0.00 0.00 0.00 56 1017.5
20260502050030 54 109 2.6 7.8 0.00 0.00 0.00 57 1017.5
20260502045030 54 119 1.7 7.0 0.00 0.00 0.00 57 1017.4
20260502044029 54 130 1.7 7.0 0.00 0.00 0.00 58 1017.4
20260502043029 53 119 1.7 6.1 0.00 0.00 0.00 58 1017.5
20260502042030 53 88 2.6 7.0 0.00 0.00 0.00 57 1017.5
20260502041029 54 121 2.6 7.0 0.00 0.00 0.00 57 1017.6
20260502040030 54 105 2.6 7.8 0.00 0.00 0.00 56 1017.6
20260502035029 54 123 0.9 4.3 0.00 0.00 0.00 56 1017.6
20260502034029 54 105 1.7 6.1 0.00 0.00 0.00 56 1017.8
20260502033030 54 93 3.5 7.8 0.00 0.00 0.00 56 1017.9
20260502032030 54 104 3.5 8.7 0.00 0.00 0.00 55 1017.8
20260502031030 55 91 3.5 7.8 0.00 0.00 0.00 55 1017.9
20260502030029 55 105 3.5 8.7 0.00 0.00 0.00 55 1018.0
20260502025030 55 113 3.5 7.8 0.00 0.00 0.00 54 1018.1
20260502024030 55 96 3.5 7.8 0.00 0.00 0.00 54 1018.1
20260502023029 56 86 3.5 7.8 0.00 0.00 0.00 53 1018.1
20260502022029 56 96 4.3 7.8 0.00 0.00 0.00 53 1018.2